| time (UTC) | temp F | wind direction | speed MPH | gust MPH | rain 1hr in | rain 24hr in | rain mn in | humidity % | barometer mb |
| 20260507114518 | 42 | 91 | 1.0 | 2.0 | 0.00 | 0.00 | 0.00 | 91 | 1018.1 |
| 20260507113516 | 42 | 79 | 3.0 | 5.0 | 0.00 | 0.00 | 0.00 | 91 | 1018.1 |
| 20260507112534 | 41 | 59 | 2.0 | 4.0 | 0.00 | 0.00 | 0.00 | 90 | 1018.0 |
| 20260507111552 | 41 | 93 | 2.0 | 4.0 | 0.00 | 0.00 | 0.00 | 89 | 1017.8 |
| 20260507110530 | 41 | 80 | 2.0 | 3.0 | 0.00 | 0.00 | 0.00 | 87 | 1017.7 |
| 20260507105549 | 42 | 97 | 2.0 | 4.0 | 0.00 | 0.00 | 0.00 | 86 | 1017.7 |
| 20260507104526 | 42 | 122 | 3.0 | 5.0 | 0.00 | 0.00 | 0.00 | 86 | 1017.7 |
| 20260507103544 | 41 | 49 | 2.0 | 4.0 | 0.00 | 0.00 | 0.00 | 87 | 1017.9 |
| 20260507102543 | 41 | 95 | 1.0 | 5.0 | 0.00 | 0.00 | 0.00 | 88 | 1017.7 |
| 20260507101521 | 41 | 5 | 3.0 | 5.0 | 0.00 | 0.00 | 0.00 | 89 | 1017.5 |
| 20260507100519 | 40 | 99 | 2.0 | 3.0 | 0.00 | 0.00 | 0.00 | 88 | 1017.6 |
| 20260507095517 | 39 | 104 | 1.0 | 4.0 | 0.00 | 0.00 | 0.00 | 89 | 1017.9 |
| 20260507094535 | 39 | 74 | 1.0 | 2.0 | 0.00 | 0.00 | 0.00 | 90 | 1017.9 |
| 20260507093534 | 38 | 75 | 0.0 | 2.0 | 0.00 | 0.00 | 0.00 | 89 | 1017.8 |
| 20260507092532 | 39 | 101 | 1.0 | 2.0 | 0.00 | 0.00 | 0.00 | 88 | 1017.8 |
| 20260507091550 | 38 | 108 | 2.0 | 2.0 | 0.00 | 0.00 | 0.00 | 88 | 1017.8 |
| 20260507090528 | 39 | 71 | 1.0 | 2.0 | 0.00 | 0.00 | 0.00 | 87 | 1017.7 |
| 20260507085526 | 39 | 83 | 1.0 | 2.0 | 0.00 | 0.00 | 0.00 | 86 | 1017.7 |
| 20260507084524 | 39 | 80 | 1.0 | 2.0 | 0.00 | 0.00 | 0.00 | 85 | 1017.5 |
| 20260507083523 | 39 | 65 | 1.0 | 2.0 | 0.00 | 0.00 | 0.00 | 84 | 1017.5 |
| 20260507082521 | 40 | 68 | 2.0 | 2.0 | 0.00 | 0.00 | 0.00 | 82 | 1017.5 |
| 20260507081519 | 40 | 62 | 2.0 | 2.0 | 0.00 | 0.00 | 0.00 | 80 | 1017.5 |
| 20260507080517 | 41 | 112 | 2.0 | 3.0 | 0.00 | 0.00 | 0.00 | 79 | 1017.6 |
| 20260507075555 | 41 | 88 | 1.0 | 2.0 | 0.00 | 0.00 | 0.00 | 79 | 1017.7 |
| 20260507074533 | 41 | 84 | 2.0 | 2.0 | 0.00 | 0.00 | 0.00 | 77 | 1017.9 |
| 20260507073532 | 41 | 86 | 1.0 | 2.0 | 0.00 | 0.00 | 0.00 | 76 | 1017.9 |
| 20260507072529 | 41 | 68 | 2.0 | 2.0 | 0.00 | 0.00 | 0.00 | 75 | 1018.1 |
| 20260507071608 | 42 | 87 | 2.0 | 2.0 | 0.00 | 0.00 | 0.00 | 74 | 1018.0 |
| 20260507070526 | 42 | 69 | 2.0 | 2.0 | 0.00 | 0.00 | 0.00 | 72 | 1018.2 |
| 20260507065524 | 43 | 67 | 2.0 | 2.0 | 0.00 | 0.00 | 0.00 | 71 | 1018.2 |
| 20260507064522 | 43 | 68 | 2.0 | 2.0 | 0.00 | 0.00 | 0.00 | 68 | 1018.1 |
| 20260507063520 | 44 | 59 | 2.0 | 2.0 | 0.00 | 0.00 | 0.00 | 68 | 1018.0 |
| 20260507062518 | 45 | 72 | 2.0 | 2.0 | 0.00 | 0.00 | 0.00 | 65 | 1018.0 |
| 20260507061516 | 46 | 94 | 2.0 | 3.0 | 0.00 | 0.00 | 0.00 | 64 | 1018.1 |
| 20260507060535 | 47 | 82 | 2.0 | 4.0 | 0.00 | 0.00 | 0.00 | 61 | 1018.2 |
| 20260507055533 | 47 | 68 | 2.0 | 3.0 | 0.00 | 0.00 | 0.00 | 59 | 1018.1 |
| 20260507054551 | 48 | 70 | 2.0 | 4.0 | 0.00 | 0.00 | 0.00 | 59 | 1018.2 |
| 20260507053549 | 48 | 58 | 2.0 | 3.0 | 0.00 | 0.00 | 0.00 | 58 | 1018.1 |
| 20260507052527 | 48 | 67 | 2.0 | 4.0 | 0.00 | 0.00 | 0.00 | 57 | 1018.1 |
| 20260507051526 | 49 | 67 | 3.0 | 5.0 | 0.00 | 0.00 | 0.00 | 56 | 1018.0 |
| 20260507050523 | 49 | 65 | 4.0 | 6.0 | 0.00 | 0.00 | 0.00 | 55 | 1018.0 |
| 20260507045522 | 49 | 64 | 3.0 | 5.0 | 0.00 | 0.00 | 0.00 | 55 | 1017.8 |
| 20260507044520 | 50 | 64 | 3.0 | 4.0 | 0.00 | 0.00 | 0.00 | 55 | 1017.8 |
| 20260507043518 | 50 | 59 | 3.0 | 6.0 | 0.00 | 0.00 | 0.00 | 54 | 1017.8 |
| 20260507042516 | 51 | 65 | 4.0 | 7.0 | 0.00 | 0.00 | 0.00 | 54 | 1017.7 |
| 20260507041634 | 51 | 64 | 4.0 | 7.0 | 0.00 | 0.00 | 0.00 | 54 | 1017.8 |
| 20260507040552 | 51 | 55 | 4.0 | 6.0 | 0.00 | 0.00 | 0.00 | 53 | 1017.8 |
| 20260507035531 | 51 | 63 | 4.0 | 6.0 | 0.00 | 0.00 | 0.00 | 52 | 1017.7 |
| 20260507034549 | 52 | 60 | 4.0 | 6.0 | 0.00 | 0.00 | 0.00 | 52 | 1017.7 |
| 20260507033527 | 52 | 54 | 3.0 | 6.0 | 0.00 | 0.00 | 0.00 | 52 | 1017.6 |
| 20260507032525 | 52 | 66 | 3.0 | 5.0 | 0.00 | 0.00 | 0.00 | 53 | 1017.6 |
| 20260507031523 | 52 | 64 | 3.0 | 5.0 | 0.00 | 0.00 | 0.00 | 52 | 1017.5 |
| 20260507030541 | 53 | 56 | 3.0 | 5.0 | 0.00 | 0.00 | 0.00 | 50 | 1017.4 |
| 20260507025519 | 53 | 52 | 4.0 | 8.0 | 0.00 | 0.00 | 0.00 | 50 | 1017.2 |
| 20260507024537 | 53 | 62 | 3.0 | 6.0 | 0.00 | 0.01 | 0.00 | 49 | 1017.3 |
| 20260507023516 | 54 | 44 | 3.0 | 7.0 | 0.00 | 0.01 | 0.00 | 49 | 1017.3 |
| 20260507022534 | 54 | 54 | 4.0 | 6.0 | 0.00 | 0.01 | 0.00 | 47 | 1017.2 |
| 20260507021532 | 55 | 68 | 4.0 | 6.0 | 0.00 | 0.01 | 0.00 | 46 | 1017.2 |
| 20260507020530 | 55 | 60 | 3.0 | 6.0 | 0.00 | 0.01 | 0.00 | 46 | 1017.0 |
| 20260507015529 | 56 | 61 | 3.0 | 6.0 | 0.00 | 0.01 | 0.00 | 46 | 1016.9 |
| 20260507014526 | 56 | 70 | 3.0 | 5.0 | 0.00 | 0.01 | 0.00 | 45 | 1016.8 |
| 20260507013525 | 56 | 73 | 4.0 | 9.0 | 0.00 | 0.01 | 0.00 | 44 | 1016.6 |
| 20260507012523 | 56 | 58 | 4.0 | 7.0 | 0.00 | 0.01 | 0.00 | 45 | 1016.5 |
| 20260507011521 | 57 | 74 | 4.0 | 7.0 | 0.00 | 0.01 | 0.00 | 44 | 1016.6 |
| 20260507010519 | 57 | 47 | 3.0 | 6.0 | 0.00 | 0.01 | 0.00 | 44 | 1016.4 |
| 20260507005517 | 57 | 63 | 4.0 | 6.0 | 0.00 | 0.01 | 0.00 | 44 | 1016.3 |
| 20260507004515 | 58 | 66 | 5.0 | 7.0 | 0.00 | 0.01 | 0.00 | 44 | 1016.2 |
| 20260507003533 | 58 | 58 | 4.0 | 8.0 | 0.00 | 0.01 | 0.00 | 44 | 1016.2 |
| 20260507002531 | 58 | 57 | 4.0 | 8.0 | 0.00 | 0.01 | 0.00 | 43 | 1016.0 |
| 20260507001530 | 59 | 67 | 4.0 | 10.0 | 0.00 | 0.01 | 0.00 | 43 | 1016.0 |
| 20260507000548 | 59 | 58 | 3.0 | 11.0 | 0.00 | 0.01 | 0.00 | 43 | 1015.7 |
| 20260506235526 | 59 | 58 | 5.0 | 11.0 | 0.00 | 0.01 | 0.00 | 44 | 1015.5 |
| 20260506234524 | 59 | 52 | 4.0 | 8.0 | 0.00 | 0.01 | 0.00 | 43 | 1015.3 |
| 20260506233522 | 60 | 65 | 4.0 | 8.0 | 0.00 | 0.01 | 0.00 | 41 | 1015.2 |
| 20260506232521 | 60 | 58 | 7.0 | 15.0 | 0.00 | 0.01 | 0.00 | 41 | 1015.0 |
| 20260506231519 | 60 | 59 | 5.0 | 9.0 | 0.00 | 0.01 | 0.00 | 41 | 1015.2 |
| 20260506230517 | 61 | 57 | 5.0 | 10.0 | 0.00 | 0.01 | 0.00 | 40 | 1015.2 |
| 20260506225535 | 61 | 59 | 5.0 | 9.0 | 0.00 | 0.01 | 0.00 | 40 | 1015.2 |
| 20260506224533 | 62 | 52 | 4.0 | 12.0 | 0.00 | 0.01 | 0.00 | 40 | 1015.1 |
| 20260506223531 | 63 | 39 | 4.0 | 9.0 | 0.00 | 0.02 | 0.00 | 38 | 1015.1 |
| 20260506222530 | 62 | 51 | 5.0 | 11.0 | 0.00 | 0.02 | 0.00 | 39 | 1015.1 |
| 20260506221528 | 62 | 63 | 5.0 | 9.0 | 0.00 | 0.02 | 0.00 | 40 | 1015.0 |
| 20260506220525 | 63 | 46 | 6.0 | 15.0 | 0.00 | 0.02 | 0.00 | 39 | 1015.1 |
| 20260506215524 | 62 | 47 | 5.0 | 11.0 | 0.00 | 0.02 | 0.00 | 40 | 1015.1 |
| 20260506214522 | 63 | 55 | 6.0 | 9.0 | 0.00 | 0.02 | 0.00 | 39 | 1015.1 |
| 20260506213520 | 62 | 58 | 3.0 | 8.0 | 0.00 | 0.02 | 0.00 | 41 | 1015.4 |
| 20260506212518 | 63 | 55 | 5.0 | 9.0 | 0.00 | 0.02 | 0.00 | 40 | 1015.5 |
| 20260506211516 | 62 | 59 | 4.0 | 8.0 | 0.00 | 0.02 | 0.00 | 41 | 1015.6 |
| 20260506210535 | 62 | 59 | 4.0 | 9.0 | 0.00 | 0.02 | 0.00 | 41 | 1015.8 |
| 20260506205533 | 63 | 49 | 4.0 | 10.0 | 0.00 | 0.02 | 0.00 | 42 | 1015.7 |
| 20260506204531 | 62 | 63 | 4.0 | 9.0 | 0.00 | 0.02 | 0.00 | 43 | 1015.6 |
| 20260506203529 | 62 | 58 | 5.0 | 15.0 | 0.00 | 0.02 | 0.00 | 42 | 1015.8 |
| 20260506202547 | 63 | 35 | 5.0 | 9.0 | 0.00 | 0.02 | 0.00 | 42 | 1015.7 |
| 20260506201545 | 62 | 20 | 5.0 | 10.0 | 0.00 | 0.02 | 0.00 | 42 | 1015.9 |
| 20260506200523 | 61 | 53 | 4.0 | 7.0 | 0.00 | 0.02 | 0.00 | 44 | 1016.2 |
| 20260506195542 | 61 | 47 | 5.0 | 10.0 | 0.00 | 0.02 | 0.00 | 44 | 1016.2 |
| 20260506194540 | 62 | 55 | 4.0 | 9.0 | 0.00 | 0.02 | 0.00 | 45 | 1016.2 |
| 20260506193518 | 62 | 61 | 6.0 | 10.0 | 0.00 | 0.02 | 0.00 | 44 | 1016.6 |
| 20260506192536 | 61 | 65 | 6.0 | 11.0 | 0.00 | 0.02 | 0.00 | 45 | 1016.6 |
| 20260506191534 | 61 | 55 | 5.0 | 7.0 | 0.00 | 0.02 | 0.00 | 46 | 1016.6 |
| 20260506190533 | 61 | 43 | 5.0 | 10.0 | 0.00 | 0.02 | 0.00 | 48 | 1016.9 |
| 20260506185531 | 60 | 63 | 4.0 | 7.0 | 0.00 | 0.02 | 0.00 | 49 | 1017.1 |
| 20260506184529 | 60 | 68 | 6.0 | 9.0 | 0.00 | 0.02 | 0.00 | 50 | 1017.3 |
| 20260506183547 | 59 | 71 | 5.0 | 12.0 | 0.00 | 0.02 | 0.00 | 49 | 1017.6 |
| 20260506182525 | 59 | 52 | 5.0 | 9.0 | 0.00 | 0.02 | 0.00 | 50 | 1017.6 |
| 20260506181523 | 59 | 53 | 5.0 | 11.0 | 0.00 | 0.02 | 0.00 | 50 | 1017.7 |
| 20260506180521 | 58 | 45 | 5.0 | 10.0 | 0.00 | 0.02 | 0.00 | 52 | 1017.6 |
| 20260506175519 | 58 | 63 | 5.0 | 11.0 | 0.00 | 0.02 | 0.00 | 56 | 1017.5 |
| 20260506174518 | 58 | 65 | 5.0 | 9.0 | 0.00 | 0.02 | 0.00 | 55 | 1017.7 |
| 20260506173516 | 58 | 47 | 4.0 | 9.0 | 0.00 | 0.02 | 0.00 | 55 | 1017.8 |
| 20260506172554 | 59 | 47 | 4.0 | 9.0 | 0.00 | 0.02 | 0.00 | 54 | 1017.7 |
| 20260506171532 | 59 | 71 | 4.0 | 7.0 | 0.00 | 0.02 | 0.00 | 56 | 1017.6 |
| 20260506170530 | 58 | 58 | 4.0 | 9.0 | 0.00 | 0.02 | 0.00 | 55 | 1017.2 |
| 20260506165548 | 57 | 62 | 5.0 | 9.0 | 0.00 | 0.02 | 0.00 | 56 | 1017.2 |
| 20260506164526 | 58 | 64 | 5.0 | 9.0 | 0.00 | 0.02 | 0.00 | 55 | 1017.1 |
| 20260506163524 | 58 | 50 | 3.0 | 8.0 | 0.00 | 0.02 | 0.00 | 57 | 1017.2 |
| 20260506162523 | 57 | 46 | 4.0 | 10.0 | 0.00 | 0.02 | 0.00 | 57 | 1017.2 |
| 20260506161521 | 56 | 31 | 4.0 | 6.0 | 0.00 | 0.02 | 0.00 | 57 | 1017.2 |
| 20260506160519 | 56 | 110 | 4.0 | 9.0 | 0.00 | 0.02 | 0.00 | 59 | 1017.1 |
| 20260506155517 | 55 | 100 | 4.0 | 9.0 | 0.00 | 0.02 | 0.00 | 62 | 1016.9 |
| 20260506154515 | 54 | 75 | 3.0 | 7.0 | 0.00 | 0.02 | 0.00 | 63 | 1016.8 |
| 20260506153533 | 52 | 79 | 4.0 | 8.0 | 0.00 | 0.02 | 0.00 | 64 | 1016.8 |
| 20260506152532 | 52 | 66 | 5.0 | 9.0 | 0.00 | 0.02 | 0.00 | 64 | 1016.8 |
| 20260506151530 | 52 | 66 | 4.0 | 9.0 | 0.00 | 0.02 | 0.00 | 65 | 1017.0 |
| 20260506150548 | 51 | 53 | 4.0 | 6.0 | 0.00 | 0.02 | 0.00 | 66 | 1017.1 |
| 20260506145526 | 51 | 76 | 4.0 | 6.0 | 0.00 | 0.02 | 0.00 | 67 | 1016.9 |
| 20260506144604 | 50 | 77 | 5.0 | 9.0 | 0.00 | 0.02 | 0.00 | 67 | 1017.0 |
| 20260506143522 | 50 | 49 | 6.0 | 9.0 | 0.00 | 0.02 | 0.00 | 69 | 1016.7 |
| 20260506142521 | 49 | 69 | 5.0 | 9.0 | 0.00 | 0.02 | 0.00 | 71 | 1016.7 |
| 20260506141539 | 49 | 59 | 4.0 | 9.0 | 0.00 | 0.02 | 0.00 | 72 | 1016.8 |
| 20260506140537 | 49 | 59 | 4.0 | 8.0 | 0.00 | 0.02 | 0.00 | 74 | 1016.5 |
| 20260506135535 | 48 | 55 | 5.0 | 8.0 | 0.00 | 0.02 | 0.00 | 74 | 1016.6 |
| 20260506134533 | 48 | 56 | 4.0 | 8.0 | 0.00 | 0.02 | 0.00 | 76 | 1016.4 |
| 20260506133531 | 47 | 68 | 4.0 | 8.0 | 0.00 | 0.02 | 0.00 | 80 | 1016.3 |
| 20260506132530 | 47 | 56 | 6.0 | 10.0 | 0.00 | 0.02 | 0.00 | 81 | 1016.4 |
| 20260506131547 | 46 | 54 | 4.0 | 9.0 | 0.00 | 0.02 | 0.00 | 84 | 1016.4 |
| 20260506130526 | 46 | 58 | 5.0 | 11.0 | 0.00 | 0.02 | 0.00 | 84 | 1016.6 |
| 20260506125524 | 46 | 72 | 4.0 | 7.0 | 0.00 | 0.02 | 0.00 | 86 | 1016.6 |
| 20260506124522 | 46 | 59 | 5.0 | 9.0 | 0.00 | 0.02 | 0.00 | 85 | 1016.6 |
| 20260506123520 | 46 | 62 | 4.0 | 6.0 | 0.00 | 0.02 | 0.00 | 86 | 1016.7 |
| 20260506122518 | 45 | 60 | 3.0 | 5.0 | 0.00 | 0.02 | 0.00 | 87 | 1016.4 |
| 20260506121516 | 45 | 60 | 4.0 | 7.0 | 0.00 | 0.02 | 0.00 | 87 | 1016.3 |
| 20260506120534 | 45 | 55 | 4.0 | 6.0 | 0.00 | 0.02 | 0.00 | 88 | 1016.3 |
| 20260506115533 | 45 | 53 | 4.0 | 8.0 | 0.00 | 0.02 | 0.00 | 89 | 1016.2 |